Starlink 30393

operational
NORAD ID: 57866 Int'l Des: 2023-144 Owner: SPXS Country: US Constellation: starlink
LEOCIRCULAR

About Starlink 30393

Description loading...

Live Position

Loading 3D Globe...

Upcoming Passes

Altitude History

Altitude vs Time

uPlot chart will show altitude changes over time

Two-Line Element Set

1 57866U 23144C 25259.11205160 .00000603 00000-0 59714-4 0 9994
2 57866 43.0023 155.7376 0000921 271.0740 88.9997 15.02541163111318
Epoch: Sep 16, 2025 • Age: 21 hours

Current Status

Altitude 565.7 km
Velocity 7.58 km/s
Sub-Earth Point -27.62°S, 132.39°E
Launch Date Sep 16, 2023
Age 2 years
Type internet

Technical Details

Classification Payload
Mass 730.00 kg
Dry Mass 700.00 kg
Total Mass 730.00 kg
Length 0.30 m
Diameter 4.10 m
Span 29.00 m
Shape Box + pan
Manufacturer SPXS
Bus Type Starlink V2M
Phase Status In Orbit
Owner/State SPXS/US

Large Constellations

Loading constellations...